Skip Page Navigation
NASA JPL Caltech
NASA Logo - Jet Propulsion Laboratory + View the NASA Portal
+ Near-Earth Object (NEO) Program
Search JPL
JPL Home Earth Solar System Stars & Galaxies Technology
JPL Solar System Dynamics
BODIES ORBITS EPHEMERIDES TOOLS PHYSICAL DATA DISCOVERY FAQ SITE MAP
JPL Small-Body Database Browser
Search: [ help ]  
3838 Epona (1986 WA)
Classification: Apollo [NEO]          SPK-ID: 2003838
Ephemeris | Orbit Diagram | Orbital Elements | Physical Parameters | Discovery Circumstances | Close-Approach Data ]

[ hide orbit diagram ]
Orbit Diagram
Note: Make sure you have Java enabled on your browser to see the applet. This applet is provided as a 3D orbit visualization tool. The applet was implemented using 2-body methods, and hence should not be used for determining accurate long-term trajectories (over several years or decades) or planetary encounter circumstances. For accurate long-term ephemerides, please instead use our Horizons system.
Orbit Viewer

Additional Notes: the orbits shown in the applet are color coded. The planets are white lines, and the asteroid/comet is a blue line. The bright white line indicates the portion of the orbit that is above the ecliptic plane, and the darker portion is below the ecliptic plane. Likewise for the asteroid/comet orbit, the light blue indicates the portion above the ecliptic plane, and the dark blue the portion below the ecliptic plane.

Orbit Viewer applet originally written and kindly provided by Osamu Ajiki (AstroArts), and further modified by Ron Baalke (JPL).


Orbital Elements at Epoch 2456400.5 (2013-Apr-18.0) TDB
Reference: JPL 82 (heliocentric ecliptic J2000)
 Element Value Uncertainty (1-sigma)   Units 
e .7021678184626404 9.88e-08  
a 1.50509136575585 4.7181e-09 AU
q .4482646448761087 1.4866e-07 AU
i 29.23059379531078 1.5789e-05 deg
node 235.591085371903 9.9602e-06 deg
peri 49.60138549818603 1.3695e-05 deg
M 143.5584903692309 7.6884e-06 deg
tp 2456131.551513062861
(2012-Jul-23.05151306)
1.4013e-05 JED
period 674.4390739157689
1.85
3.1713e-06
8.683e-09
d
yr
n .5337769027969466 2.5099e-09 deg/d
Q 2.561918086635591 8.031e-09 AU
  Orbit Determination Parameters
   # obs. used (total)      547  
   data-arc span      9563 days (26.18 yr)  
   first obs. used      1986-12-01  
   last obs. used      2013-02-05  
   planetary ephem.      DE405  
   SB-pert. ephem.      SB405-CPV-2  
   condition code      0  
   fit RMS      .53342  
   data source      ORB  
   producer      Otto Matic  
   solution date      2013-Apr-29 15:43:25  

Additional Information
 Earth MOID = .160787 AU 
 T_jup = 4.126 
[ show covariance matrix ]

Ephemeris | Orbit Diagram | Orbital Elements | Physical Parameters | Discovery Circumstances | Close-Approach Data ]

Physical Parameter Table
Parameter Symbol Value Units Sigma Reference Notes
absolute magnitude H 15.5 mag n/a PDS3 (MPC 28110)  
rotation period rot_per 2.3812 h n/a Asteroid Lightcurve DataBase (Rev. 2013-May-01) Incomplete or inconclusive result.
Published Reference List:
[Pravec, P.; Wolf, M.; Sarounova, L. (1999) http://www.asu.cas.cz/~ppravec/neo.htm]
[Pravec, P.; Wolf, M.; Sarounova, L. (1999) http://www.asu.cas.cz/~ppravec/neo.htm]
[Pravec, P.; Wolf, M.; Sarounova, L. (1999) http://www.asu.cas.cz/~ppravec/neo.htm]
[Pravec, P.; Wolf, M.; Sarounova, L. (1999) http://www.asu.cas.cz/~ppravec/neo.htm]
[Skiff, B.A. (2011) Posting on CALL web site. http://www.minorplanet.info/call.html]

3838 Epona (1986 WA)          Discovered 1986-Nov-27 by Maury, A. at Palomar (675)
Reference: DISCOVERY.DBLast Updated: 2003-08-29

[ show close-approach data ]
Ephemeris | Orbit Diagram | Orbital Elements | Physical Parameters | Discovery Circumstances | Close-Approach Data ]
ABOUT SSD CREDITS/AWARDS PRIVACY/COPYRIGHT GLOSSARY LINKS
FirstGov 2013-May-25 10:10 UT
(server date/time)  
NASA Home Page
Site Manager:   Donald K. Yeomans
Webmaster  Alan B. Chamberlin